Salem, IN

3:20 AM EDT on July 28, 2017 (GMT -0400)
N/W Washington County | | Change Station

Elev 804 ft 38.70 °N, 86.29 °W | Updated 11 seconds ago

Overcast
Overcast
74.3 °F
Feels Like 75 °F
N
0.0
Wind Variable Wind from SSW
Gusts 0.0 mph

Today
High -- | Low -- °F
--% Chance of Precip.
Yesterday
High -- | Low -- °F
Precip. -- in
Pressure 29.83 in
Visibility 10.0 miles
Clouds Scattered Clouds 7000 ft
Scattered Clouds 8500 ft
Mostly Cloudy 11000 ft
Heat Index 75 °F
Dew Point 67 °F
Humidity 78%
Rainfall 0.07 in
Snow Depth Not available.
6:42 AM 8:58 PM
Waxing Crescent, 28% visible
METAR KLOU 280653Z AUTO 27003KT 10SM -RA SCT070 SCT085 BKN110 24/23 A2985 RMK AO2 RAB06 SLP102 P0000 T02440233
Pressure 29.83 in
Visibility 10.0 miles
Clouds Scattered Clouds 7000 ft
Scattered Clouds 8500 ft
Mostly Cloudy 11000 ft
Heat Index 75 °F
Dew Point 67 °F
Humidity 78%
Rainfall 0.07 in
Snow Depth Not available.
6:42 AM 8:58 PM
Waxing Crescent, 28% visible
METAR KLOU 280653Z AUTO 27003KT 10SM -RA SCT070 SCT085 BKN110 24/23 A2985 RMK AO2 RAB06 SLP102 P0000 T02440233

Get Severe Weather Alerts

Thanks for signing up!

Be on the lookout for a verification email in your inbox.

You'll start receiving the daily forecast at 6 AM.

×

10-Day Weather Forecast

Almanac

Astronomy

Jul. 28, 2017 Rise Set
Actual Time
Civil Twilight
Nautical Twilight
Astronomical Twilight
Moon
Length of Visible Light
Length of Day
Tomorrow will be .
, % of the Moon is Illuminated

Today's Extremes

State Highs State Lows

Community

WunderPhotos

Category 6

Welcome to Category 6. This is the collective home for Weather Underground's featured writeups by Dr. Jeff Masters (right), Bob Henson (left), Chris Burt, and other regular contributors.

Nearby

Air Quality

  Air Quality AQ Index Pollutant
Not available.

Snow Depth

Station Depth Elevation

Earthquake Activity

City Distance Mag. Time & Date
Minimum magnitude displayed is 2.5.

Coastal Water Temperatures

Place Temperature

Stations

Nearby Weather Stations

Station Location Temp. Windchill Dew Point Humidity Wind Precip. Elev Updated Type
                   

Watches & Warnings

There are currently no watches in effect.